When you browse on this site, cookies collect data to enhance your experience and personalize the content and advertising you see.
Visit our Privacy Policy to learn more. By continuing to use the site, you agree to this use of cookies and data.
  • In Romania
  • List of Countries
  • For 7 days
  • Water Temperature
  • Weather Map
  • Weather Widgets
  • user-avatar
    Login

    Hourly Weather Manaus

    Today, 20 September, Friday

    Time Temperature Precipitation Wind Pressure Humidity
    00:00 +29°C° 0 mm 1 mps 751 mmHg 66%
    01:00 +29°C° 0 mm 1 mps 751 mmHg 67%
    02:00 +28°C° 0 mm 1 mps 751 mmHg 69%
    03:00 +28°C° 0 mm 1 mps 751 mmHg 70%
    04:00 +27°C° 0 mm 1 mps 751 mmHg 70%
    05:00 +27°C° 0 mm 1 mps 751 mmHg 71%
    06:00 +29°C° 0 mm 1 mps 752 mmHg 65%
    07:00 +31°C° 0 mm 1 mps 753 mmHg 58%
    08:00 +30°C° 0 mm 0 mps 754 mmHg 52%
    09:00 +35°C° 0 mm 1 mps 753 mmHg 46%
    10:00 +37°C° 0 mm 1 mps 753 mmHg 39%
    11:00 +40°C° 0 mm 2 mps 753 mmHg 33%
    12:00 +41°C° 0 mm 2 mps 752 mmHg 30%
    13:00 +42°C° 0 mm 2 mps 751 mmHg 28%
    14:00 +43°C° 0 mm 2 mps 750 mmHg 25%
    15:00 +42°C° 0 mm 1 mps 750 mmHg 28%
    16:00 +41°C° 0 mm 1 mps 750 mmHg 30%
    17:00 +37°C° 0 mm 0 mps 750 mmHg 33%
    18:00 +35°C° 0 mm 0 mps 750 mmHg 36%
    19:00 +33°C° 0 mm 0 mps 751 mmHg 40%
    20:00 +31°C° 0 mm 0 mps 751 mmHg 43%
    21:00 +32°C° 0 mm 1 mps 751 mmHg 45%
    22:00 +31°C° 0 mm 1 mps 751 mmHg 47%
    23:00 +30°C° 0 mm 1 mps 751 mmHg 49%

    Tomorrow, 21 September, Saturday

    Time Temperature Precipitation Wind Pressure Humidity
    00:00 +30°C° 0 mm 1 mps 751 mmHg 49%
    01:00 +30°C° 0 mm 1 mps 751 mmHg 50%
    02:00 +29°C° 0 mm 1 mps 750 mmHg 50%
    03:00 +29°C° 0 mm 1 mps 751 mmHg 51%
    04:00 +28°C° 0 mm 1 mps 751 mmHg 53%
    05:00 +28°C° 0 mm 1 mps 751 mmHg 54%
    06:00 +29°C° 0 mm 1 mps 752 mmHg 50%
    07:00 +31°C° 0 mm 1 mps 753 mmHg 45%
    08:00 +31°C° 0 mm 0 mps 753 mmHg 41%
    09:00 +33°C° 0 mm 0 mps 753 mmHg 36%
    10:00 +36°C° 0 mm 0 mps 753 mmHg 31%
    11:00 +41°C° 0 mm 1 mps 753 mmHg 26%
    12:00 +42°C° 0 mm 1 mps 752 mmHg 26%
    13:00 +42°C° 0 mm 1 mps 751 mmHg 25%
    14:00 +42°C° 0 mm 1 mps 750 mmHg 25%
    15:00 +41°C° 0 mm 1 mps 750 mmHg 28%
    16:00 +40°C° 0 mm 1 mps 749 mmHg 31%
    17:00 +35°C° 0 mm 0 mps 749 mmHg 35%
    18:00 +36°C° 0 mm 1 mps 750 mmHg 38%
    19:00 +34°C° 0 mm 1 mps 750 mmHg 42%
    20:00 +32°C° 0 mm 1 mps 751 mmHg 45%
    21:00 +32°C° 0.1 mm 1 mps 751 mmHg 48%
    22:00 +31°C° 0.1 mm 1 mps 751 mmHg 52%
    23:00 +30°C° 0.1 mm 1 mps 752 mmHg 55%

    Day after tomorrow, 22 September, Sunday

    Time Temperature Precipitation Wind Pressure Humidity
    00:00 +30°C° 0 mm 1 mps 751 mmHg 58%
    01:00 +29°C° 0 mm 1 mps 751 mmHg 62%
    02:00 +28°C° 0 mm 1 mps 751 mmHg 65%
    03:00 +28°C° 0.1 mm 1 mps 751 mmHg 67%
    04:00 +26°C° 0.1 mm 0 mps 752 mmHg 69%
    05:00 +25°C° 0.1 mm 0 mps 752 mmHg 71%
    06:00 +28°C° 0.4 mm 1 mps 753 mmHg 71%
    07:00 +29°C° 0.4 mm 1 mps 754 mmHg 71%
    08:00 +29°C° 0.4 mm 1 mps 755 mmHg 72%
    09:00 +31°C° 0 mm 1 mps 755 mmHg 63%
    10:00 +33°C° 0 mm 1 mps 754 mmHg 55%
    11:00 +35°C° 0 mm 1 mps 754 mmHg 46%
    12:00 +37°C° 0 mm 1 mps 753 mmHg 42%
    13:00 +39°C° 0 mm 1 mps 753 mmHg 37%
    14:00 +41°C° 0 mm 1 mps 752 mmHg 32%
    15:00 +39°C° 0.1 mm 2 mps 751 mmHg 36%
    16:00 +38°C° 0.1 mm 2 mps 750 mmHg 41%
    17:00 +37°C° 0.1 mm 2 mps 749 mmHg 45%
    18:00 +35°C° 0 mm 2 mps 750 mmHg 52%
    19:00 +31°C° 0 mm 1 mps 751 mmHg 60%
    20:00 +29°C° 0 mm 1 mps 752 mmHg 67%
    21:00 +28°C° 0.5 mm 1 mps 752 mmHg 75%
    22:00 +27°C° 0.5 mm 1 mps 753 mmHg 83%
    23:00 +26°C° 0.5 mm 2 mps 753 mmHg 90%

    23 September, Monday

    Time Temperature Precipitation Wind Pressure Humidity
    00:00 +26°C° 0.1 mm 1 mps 753 mmHg 91%
    01:00 +26°C° 0.1 mm 1 mps 752 mmHg 92%
    02:00 +26°C° 0.1 mm 1 mps 752 mmHg 93%
    03:00 +26°C° 0 mm 1 mps 752 mmHg 92%
    04:00 +26°C° 0 mm 1 mps 752 mmHg 92%
    05:00 +26°C° 0 mm 1 mps 752 mmHg 92%
    06:00 +27°C° 0.1 mm 1 mps 753 mmHg 86%
    07:00 +28°C° 0.1 mm 1 mps 754 mmHg 81%
    08:00 +29°C° 0.1 mm 1 mps 754 mmHg 75%
    09:00 +32°C° 0.1 mm 1 mps 754 mmHg 64%
    10:00 +35°C° 0.1 mm 1 mps 754 mmHg 52%
    11:00 +39°C° 0.1 mm 1 mps 754 mmHg 41%
    12:00 +39°C° 0.1 mm 1 mps 753 mmHg 40%
    13:00 +39°C° 0.1 mm 1 mps 752 mmHg 40%
    14:00 +39°C° 0.1 mm 1 mps 751 mmHg 39%
    15:00 +37°C° 0.1 mm 1 mps 751 mmHg 43%
    16:00 +36°C° 0.1 mm 1 mps 751 mmHg 47%
    17:00 +35°C° 0.1 mm 1 mps 751 mmHg 50%
    18:00 +32°C° 0.5 mm 1 mps 751 mmHg 63%
    19:00 +30°C° 0.5 mm 1 mps 752 mmHg 76%
    20:00 +27°C° 0.5 mm 2 mps 752 mmHg 89%
    21:00 +27°C° 0.1 mm 1 mps 753 mmHg 90%
    22:00 +27°C° 0.1 mm 1 mps 753 mmHg 90%
    23:00 +26°C° 0.1 mm 1 mps 753 mmHg 91%

    24 September, Tuesday

    Time Temperature Precipitation Wind Pressure Humidity
    00:00 +26°C° 0 mm 1 mps 753 mmHg 92%
    01:00 +26°C° 0 mm 1 mps 753 mmHg 92%
    02:00 +26°C° 0 mm 1 mps 752 mmHg 93%
    03:00 +26°C° 0 mm 1 mps 753 mmHg 94%
    04:00 +26°C° 0 mm 1 mps 753 mmHg 94%
    05:00 +25°C° 0 mm 1 mps 753 mmHg 94%
    06:00 +27°C° 0 mm 1 mps 754 mmHg 89%
    07:00 +28°C° 0 mm 1 mps 755 mmHg 84%
    08:00 +29°C° 0 mm 1 mps 756 mmHg 78%
    09:00 +31°C° 0 mm 1 mps 755 mmHg 68%
    10:00 +34°C° 0 mm 1 mps 755 mmHg 58%
    11:00 +37°C° 0 mm 2 mps 755 mmHg 48%
    12:00 +37°C° 0 mm 1 mps 754 mmHg 46%
    13:00 +37°C° 0 mm 1 mps 753 mmHg 44%
    14:00 +37°C° 0 mm 1 mps 752 mmHg 42%
    15:00 +36°C° 0 mm 1 mps 752 mmHg 45%
    16:00 +35°C° 0 mm 1 mps 752 mmHg 49%
    17:00 +34°C° 0 mm 1 mps 751 mmHg 52%
    18:00 +32°C° 0.4 mm 2 mps 752 mmHg 62%
    19:00 +30°C° 0.4 mm 2 mps 752 mmHg 73%
    20:00 +28°C° 0.4 mm 3 mps 752 mmHg 83%
    21:00 +28°C° 0 mm 2 mps 753 mmHg 84%
    22:00 +27°C° 0 mm 2 mps 753 mmHg 85%
    23:00 +27°C° 0 mm 2 mps 754 mmHg 86%

    25 September, Wednesday

    Time Temperature Precipitation Wind Pressure Humidity
    00:00 +27°C° 0 mm 2 mps 754 mmHg 87%
    01:00 +27°C° 0 mm 2 mps 753 mmHg 88%
    02:00 +26°C° 0 mm 1 mps 753 mmHg 88%
    03:00 +26°C° 0.1 mm 1 mps 753 mmHg 90%
    04:00 +26°C° 0.1 mm 1 mps 753 mmHg 91%
    05:00 +25°C° 0.1 mm 1 mps 754 mmHg 93%
    06:00 +26°C° 0 mm 1 mps 754 mmHg 89%
    07:00 +27°C° 0 mm 1 mps 755 mmHg 84%
    08:00 +29°C° 0 mm 1 mps 756 mmHg 80%
    09:00 +31°C° 0 mm 2 mps 755 mmHg 69%
    10:00 +34°C° 0 mm 2 mps 755 mmHg 58%
    11:00 +37°C° 0 mm 2 mps 755 mmHg 47%
    12:00 +36°C° 0 mm 1 mps 754 mmHg 44%
    13:00 +37°C° 0 mm 1 mps 753 mmHg 42%
    14:00 +39°C° 0 mm 1 mps 752 mmHg 39%
    15:00 +37°C° 0 mm 1 mps 752 mmHg 43%
    16:00 +35°C° 0 mm 1 mps 752 mmHg 47%
    17:00 +34°C° 0 mm 1 mps 752 mmHg 51%
    18:00 +32°C° 0.2 mm 1 mps 752 mmHg 61%
    19:00 +30°C° 0.2 mm 2 mps 752 mmHg 72%
    20:00 +27°C° 0.2 mm 2 mps 752 mmHg 82%
    21:00 +27°C° 0 mm 2 mps 753 mmHg 82%
    22:00 +27°C° 0 mm 1 mps 753 mmHg 83%
    23:00 +27°C° 0 mm 1 mps 753 mmHg 84%
    Show more